CSN676 LZTT-EPZR

Flight info

Callsign CSN676
Flight time 0h 54m
Altitude 12000
Route NTA DCT PSZ
Aircraft C182/L-SDGRY/S

Departure

Time 2026-05-08 08:14
Airport Poprad-Tatry Airport (LZTT)

Arrival

Time 2026-05-08 09:08
Airport Żar Airfield (EPZR)
Time Latitude Longitude Altitude Speed Heading
2026-05-08 08:13 49.07276 20.25860 2279 ft 0 kts 252°
2026-05-08 08:13 49.07277 20.25821 2281 ft 15 kts 271°
2026-05-08 08:13 49.07295 20.25433 2291 ft 58 kts 274°
2026-05-08 08:13 49.07344 20.24651 2400 ft 78 kts 274°
2026-05-08 08:14 49.07386 20.23816 2639 ft 77 kts 266°
2026-05-08 08:14 49.07370 20.23008 2869 ft 75 kts 263°
2026-05-08 08:14 49.06943 20.22672 2996 ft 83 kts 153°
2026-05-08 08:14 49.06706 20.23400 3230 ft 84 kts 80°
2026-05-08 08:15 49.07064 20.24148 3512 ft 91 kts 53°
2026-05-08 08:15 49.07231 20.25071 3778 ft 95 kts 90°
2026-05-08 08:15 49.07220 20.26090 4070 ft 97 kts 89°
2026-05-08 08:15 49.07196 20.27124 4347 ft 98 kts 91°
2026-05-08 08:16 49.07160 20.28159 4630 ft 98 kts 91°
2026-05-08 08:16 49.07118 20.29193 4903 ft 97 kts 92°
2026-05-08 08:16 49.07073 20.30220 5174 ft 96 kts 92°
2026-05-08 08:16 49.07027 20.31222 5441 ft 94 kts 92°
2026-05-08 08:17 49.06981 20.32209 5710 ft 92 kts 92°
2026-05-08 08:17 49.06937 20.33156 5978 ft 87 kts 91°
2026-05-08 08:17 49.06894 20.34046 6239 ft 83 kts 91°
2026-05-08 08:17 49.06854 20.34881 6487 ft 73 kts 90°
2026-05-08 08:18 49.06819 20.35608 6645 ft 67 kts 88°
2026-05-08 08:18 49.06783 20.36367 6722 ft 77 kts 91°
2026-05-08 08:18 49.06741 20.37239 6824 ft 88 kts 92°
2026-05-08 08:18 49.06694 20.38235 6940 ft 102 kts 93°
2026-05-08 08:19 49.06635 20.39384 7059 ft 114 kts 94°
2026-05-08 08:19 49.06571 20.40650 7174 ft 123 kts 94°
2026-05-08 08:19 49.06504 20.41996 7275 ft 130 kts 93°
2026-05-08 08:19 49.06433 20.43414 7373 ft 136 kts 94°
2026-05-08 08:20 49.06386 20.44381 7432 ft 140 kts 94°
2026-05-08 08:20 49.06287 20.46383 7543 ft 144 kts 94°
2026-05-08 08:20 49.06210 20.47929 7702 ft 140 kts 94°
2026-05-08 08:20 49.06139 20.49375 7921 ft 133 kts 94°
2026-05-08 08:21 49.06072 20.50750 8138 ft 127 kts 94°
2026-05-08 08:21 49.06008 20.52054 8355 ft 122 kts 94°
2026-05-08 08:21 49.05944 20.53327 8573 ft 118 kts 94°
2026-05-08 08:21 49.05883 20.54560 8792 ft 114 kts 94°
2026-05-08 08:22 49.05824 20.55751 9011 ft 108 kts 93°
2026-05-08 08:22 49.05787 20.56499 9158 ft 102 kts 94°
2026-05-08 08:22 49.05736 20.57533 9334 ft 95 kts 93°
2026-05-08 08:22 49.05687 20.58524 9470 ft 91 kts 93°
2026-05-08 08:23 49.05640 20.59477 9607 ft 88 kts 92°
2026-05-08 08:23 49.05639 20.60389 9698 ft 88 kts 72°
2026-05-08 08:23 49.05967 20.61125 9770 ft 82 kts 33°
2026-05-08 08:23 49.06472 20.61445 9845 ft 76 kts 358°
2026-05-08 08:24 49.06996 20.61504 9916 ft 75 kts 356°
2026-05-08 08:24 49.07502 20.61570 9972 ft 70 kts 355°
2026-05-08 08:24 49.07970 20.61626 10000 ft 66 kts 353°
2026-05-08 08:24 49.08441 20.61681 9988 ft 69 kts 354°
2026-05-08 08:25 49.08930 20.61737 9988 ft 71 kts 354°
2026-05-08 08:25 49.09424 20.61796 9997 ft 71 kts 355°
2026-05-08 08:25 49.09938 20.61853 9938 ft 82 kts 355°
2026-05-08 08:25 49.10580 20.61926 9849 ft 100 kts 359°
2026-05-08 08:26 49.11297 20.62014 9828 ft 109 kts 359°
2026-05-08 08:26 49.12120 20.62109 9649 ft 127 kts 360°
2026-05-08 08:26 49.13060 20.62223 9464 ft 142 kts
2026-05-08 08:26 49.14082 20.62341 9265 ft 151 kts 360°
2026-05-08 08:27 49.15093 20.61950 9025 ft 152 kts 326°
2026-05-08 08:27 49.15740 20.60693 8786 ft 154 kts 290°
2026-05-08 08:27 49.15852 20.59080 8556 ft 156 kts 270°
2026-05-08 08:27 49.15840 20.57408 8337 ft 158 kts 270°
2026-05-08 08:28 49.15857 20.55720 8117 ft 159 kts 272°
2026-05-08 08:28 49.15924 20.54066 8078 ft 152 kts 274°
2026-05-08 08:28 49.16003 20.52478 8072 ft 147 kts 275°
2026-05-08 08:28 49.16080 20.50934 8075 ft 144 kts 274°
2026-05-08 08:29 49.16154 20.49421 8070 ft 143 kts 274°
2026-05-08 08:29 49.16229 20.47910 8083 ft 141 kts 275°
2026-05-08 08:29 49.16300 20.46486 8226 ft 132 kts 274°
2026-05-08 08:29 49.16367 20.45117 8373 ft 126 kts 274°
2026-05-08 08:30 49.16430 20.43811 8512 ft 121 kts 274°
2026-05-08 08:30 49.16491 20.42557 8660 ft 116 kts 274°
2026-05-08 08:30 49.16607 20.40168 8952 ft 109 kts 274°
2026-05-08 08:31 49.16724 20.39037 9075 ft 109 kts 296°
2026-05-08 08:31 49.17295 20.38275 9206 ft 107 kts 317°
2026-05-08 08:31 49.17862 20.37562 9354 ft 103 kts 316°
2026-05-08 08:31 49.18405 20.36889 9503 ft 100 kts 316°
2026-05-08 08:32 49.18935 20.36237 9651 ft 95 kts 316°
2026-05-08 08:32 49.19445 20.35622 9799 ft 90 kts 316°
2026-05-08 08:32 49.19923 20.35055 9937 ft 83 kts 316°
2026-05-08 08:32 49.20361 20.34555 10043 ft 75 kts 316°
2026-05-08 08:33 49.20783 20.34090 10068 ft 76 kts 317°
2026-05-08 08:33 49.21218 20.33601 10069 ft 80 kts 317°
2026-05-08 08:33 49.21624 20.33001 10073 ft 83 kts 309°
2026-05-08 08:33 49.21986 20.32309 10081 ft 84 kts 299°
2026-05-08 08:34 49.22333 20.31565 10083 ft 87 kts 301°
2026-05-08 08:34 49.22682 20.30813 10089 ft 89 kts 301°
2026-05-08 08:34 49.23052 20.30009 10085 ft 94 kts 301°
2026-05-08 08:34 49.23428 20.29190 10087 ft 94 kts 301°
2026-05-08 08:35 49.23758 20.28332 10086 ft 94 kts 290°
2026-05-08 08:35 49.24026 20.27392 10089 ft 98 kts 291°
2026-05-08 08:35 49.24307 20.26430 10084 ft 102 kts 291°
2026-05-08 08:35 49.24598 20.25429 10085 ft 103 kts 291°
2026-05-08 08:36 49.24892 20.24439 10081 ft 100 kts 291°
2026-05-08 08:36 49.25179 20.23458 10082 ft 102 kts 291°
2026-05-08 08:36 49.25468 20.22468 10080 ft 102 kts 291°
2026-05-08 08:36 49.25756 20.21483 10082 ft 102 kts 291°
2026-05-08 08:37 49.26043 20.20513 10072 ft 96 kts 291°
2026-05-08 08:37 49.26322 20.19587 10073 ft 97 kts 291°
2026-05-08 08:37 49.26597 20.18643 10075 ft 97 kts 288°
2026-05-08 08:37 49.26779 20.17644 10072 ft 98 kts 278°
2026-05-08 08:38 49.26779 20.16595 10068 ft 100 kts 269°
2026-05-08 08:38 49.26784 20.15528 10075 ft 101 kts 270°
2026-05-08 08:38 49.26788 20.14450 10075 ft 101 kts 270°
2026-05-08 08:38 49.26793 20.13371 10077 ft 101 kts 270°
2026-05-08 08:39 49.26798 20.12291 10081 ft 102 kts 270°
2026-05-08 08:39 49.26804 20.11220 10080 ft 101 kts 270°
2026-05-08 08:39 49.26811 20.10145 10080 ft 101 kts 270°
2026-05-08 08:39 49.26818 20.09058 10078 ft 102 kts 270°
2026-05-08 08:40 49.26825 20.07968 10080 ft 102 kts 270°
2026-05-08 08:40 49.26832 20.06880 10080 ft 102 kts 270°
2026-05-08 08:40 49.26890 20.05798 10079 ft 103 kts 279°
2026-05-08 08:40 49.27144 20.04768 10065 ft 103 kts 296°
2026-05-08 08:41 49.27670 20.04004 10070 ft 105 kts 317°
2026-05-08 08:41 49.28251 20.03310 10068 ft 106 kts 318°
2026-05-08 08:41 49.28843 20.02636 10073 ft 106 kts 319°
2026-05-08 08:41 49.29430 20.01984 10072 ft 106 kts 319°
2026-05-08 08:42 49.30030 20.01327 10071 ft 106 kts 319°
2026-05-08 08:42 49.30631 20.00673 10071 ft 106 kts 319°
2026-05-08 08:42 49.31237 20.00014 10074 ft 107 kts 320°
2026-05-08 08:42 49.31852 19.99347 10077 ft 108 kts 320°
2026-05-08 08:43 49.32469 19.98679 10072 ft 108 kts 320°
2026-05-08 08:43 49.33077 19.98020 10074 ft 106 kts 320°
2026-05-08 08:43 49.33676 19.97370 10074 ft 106 kts 319°
2026-05-08 08:43 49.34276 19.96703 10069 ft 106 kts 316°
2026-05-08 08:44 49.34768 19.95875 10068 ft 104 kts 308°
2026-05-08 08:44 49.35256 19.95054 10069 ft 103 kts 308°
2026-05-08 08:44 49.35740 19.94240 10069 ft 105 kts 308°
2026-05-08 08:44 49.36233 19.93411 10068 ft 105 kts 308°
2026-05-08 08:45 49.36720 19.92591 10069 ft 103 kts 308°
2026-05-08 08:45 49.37208 19.91769 10073 ft 104 kts 308°
2026-05-08 08:45 49.37703 19.90935 10076 ft 106 kts 308°
2026-05-08 08:45 49.38203 19.90092 10076 ft 107 kts 308°
2026-05-08 08:46 49.38708 19.89242 10079 ft 108 kts 308°
2026-05-08 08:46 49.39211 19.88394 10079 ft 108 kts 308°
2026-05-08 08:46 49.39717 19.87541 10079 ft 108 kts 308°
2026-05-08 08:46 49.40094 19.86578 10069 ft 105 kts 284°
2026-05-08 08:47 49.40301 19.85511 10070 ft 104 kts 285°
2026-05-08 08:47 49.40536 19.84465 10067 ft 105 kts 292°
2026-05-08 08:47 49.40965 19.83540 10076 ft 108 kts 304°
2026-05-08 08:47 49.41424 19.82607 10082 ft 111 kts 303°
2026-05-08 08:48 49.41899 19.81641 10090 ft 115 kts 304°
2026-05-08 08:48 49.42377 19.80662 10088 ft 114 kts 303°
2026-05-08 08:48 49.42852 19.79700 10085 ft 111 kts 304°
2026-05-08 08:48 49.43319 19.78759 10081 ft 110 kts 304°
2026-05-08 08:49 49.43781 19.77831 10082 ft 109 kts 304°
2026-05-08 08:49 49.44241 19.76910 10079 ft 108 kts 304°
2026-05-08 08:49 49.44698 19.75994 10075 ft 108 kts 304°
2026-05-08 08:49 49.45155 19.75081 10076 ft 108 kts 304°
2026-05-08 08:50 49.45609 19.74178 10074 ft 108 kts 304°
2026-05-08 08:50 49.46068 19.73267 10075 ft 107 kts 304°
2026-05-08 08:50 49.46526 19.72355 10074 ft 108 kts 304°
2026-05-08 08:50 49.46830 19.71752 10074 ft 108 kts 304°
2026-05-08 08:51 49.47446 19.70532 10072 ft 108 kts 304°
2026-05-08 08:51 49.47907 19.69618 10073 ft 108 kts 304°
2026-05-08 08:51 49.48212 19.69015 10075 ft 108 kts 304°
2026-05-08 08:51 49.48673 19.68105 10074 ft 108 kts 304°
2026-05-08 08:52 49.49127 19.67185 10074 ft 107 kts 302°
2026-05-08 08:52 49.49551 19.66239 10075 ft 108 kts 301°
2026-05-08 08:52 49.49980 19.65290 10075 ft 108 kts 301°
2026-05-08 08:52 49.50413 19.64335 10075 ft 108 kts 301°
2026-05-08 08:53 49.50841 19.63394 10078 ft 109 kts 301°
2026-05-08 08:53 49.51278 19.62441 10078 ft 109 kts 301°
2026-05-08 08:53 49.51717 19.61486 10080 ft 109 kts 302°
2026-05-08 08:53 49.52157 19.60530 10079 ft 109 kts 302°
2026-05-08 08:54 49.52598 19.59575 10080 ft 109 kts 302°
2026-05-08 08:54 49.53039 19.58622 10080 ft 109 kts 302°
2026-05-08 08:54 49.53478 19.57675 10081 ft 108 kts 302°
2026-05-08 08:54 49.53917 19.56726 10078 ft 109 kts 302°
2026-05-08 08:55 49.54358 19.55779 10081 ft 109 kts 302°
2026-05-08 08:55 49.54802 19.54823 10082 ft 109 kts 302°
2026-05-08 08:55 49.55248 19.53875 10076 ft 109 kts 302°
2026-05-08 08:55 49.55723 19.52856 9776 ft 121 kts 302°
2026-05-08 08:56 49.56221 19.51783 9542 ft 124 kts 302°
2026-05-08 08:56 49.56726 19.50684 9317 ft 127 kts 302°
2026-05-08 08:56 49.57239 19.49561 9082 ft 128 kts 302°
2026-05-08 08:56 49.57719 19.48401 8855 ft 129 kts 299°
2026-05-08 08:57 49.58196 19.47216 8628 ft 131 kts 299°
2026-05-08 08:57 49.58675 19.46016 8407 ft 133 kts 299°
2026-05-08 08:57 49.59161 19.44799 8181 ft 134 kts 300°
2026-05-08 08:57 49.59655 19.43553 7948 ft 136 kts 299°
2026-05-08 08:58 49.60140 19.42325 7705 ft 138 kts 300°
2026-05-08 08:58 49.60642 19.41046 7461 ft 140 kts 300°
2026-05-08 08:58 49.61143 19.39750 7217 ft 142 kts 300°
2026-05-08 08:58 49.61651 19.38436 6975 ft 144 kts 300°
2026-05-08 08:59 49.62165 19.37093 6733 ft 146 kts 300°
2026-05-08 08:59 49.62679 19.35738 6489 ft 145 kts 300°
2026-05-08 08:59 49.63175 19.34422 6230 ft 138 kts 300°
2026-05-08 08:59 49.63658 19.33132 5961 ft 135 kts 300°
2026-05-08 09:00 49.64124 19.31879 5705 ft 134 kts 300°
2026-05-08 09:00 49.64567 19.30634 5447 ft 133 kts 295°
2026-05-08 09:00 49.64871 19.29268 5188 ft 133 kts 289°
2026-05-08 09:00 49.65156 19.27917 4954 ft 131 kts 289°
2026-05-08 09:01 49.65440 19.26578 4741 ft 129 kts 289°
2026-05-08 09:01 49.65727 19.25229 4529 ft 128 kts 289°
2026-05-08 09:01 49.66006 19.23915 4321 ft 129 kts 289°
2026-05-08 09:01 49.66290 19.22601 4119 ft 129 kts 291°
2026-05-08 09:02 49.66599 19.21305 3923 ft 128 kts 291°
2026-05-08 09:02 49.66984 19.20057 3719 ft 128 kts 300°
2026-05-08 09:02 49.67446 19.18873 3515 ft 128 kts 303°
2026-05-08 09:02 49.67907 19.17718 3314 ft 128 kts 302°
2026-05-08 09:03 49.68376 19.16548 3109 ft 127 kts 302°
2026-05-08 09:03 49.68845 19.15393 2894 ft 127 kts 302°
2026-05-08 09:03 49.69366 19.14271 2675 ft 126 kts 310°
2026-05-08 09:03 49.69954 19.13275 2433 ft 128 kts 317°
2026-05-08 09:04 49.70716 19.12637 2221 ft 120 kts 345°
2026-05-08 09:04 49.71532 19.12627 1890 ft 115 kts
2026-05-08 09:04 49.72159 19.13213 1784 ft 104 kts 45°
2026-05-08 09:04 49.72623 19.14057 1668 ft 98 kts 47°
2026-05-08 09:05 49.72984 19.14892 1631 ft 89 kts 75°
2026-05-08 09:05 49.73121 19.15778 1632 ft 77 kts 64°
2026-05-08 09:05 49.73387 19.16367 1696 ft 57 kts 27°
2026-05-08 09:05 49.73690 19.16703 1814 ft 53 kts 29°
2026-05-08 09:06 49.73974 19.17078 1917 ft 54 kts 33°
2026-05-08 09:06 49.74232 19.17520 2073 ft 57 kts 41°
2026-05-08 09:06 49.74537 19.17933 2172 ft 63 kts 39°
2026-05-08 09:06 49.74888 19.18446 2110 ft 80 kts 56°
2026-05-08 09:07 49.75236 19.19143 2039 ft 86 kts 51°
2026-05-08 09:07 49.75669 19.19772 1933 ft 85 kts 42°
2026-05-08 09:07 49.76127 19.20341 1830 ft 83 kts 38°
2026-05-08 09:07 49.76567 19.20893 1699 ft 89 kts 44°
2026-05-08 09:08 49.77008 19.21577 1477 ft 84 kts 48°
2026-05-08 09:08 49.77238 19.22008 1382 ft 73 kts 57°
2026-05-08 09:08 49.77306 19.22181 1383 ft 0 kts 63°
2026-05-08 09:10 49.06957 20.24812 2328 ft 0 kts 263°